SCP
0 0 0 0 0 0 0 0 0 0 0 0 0 0 0 0 0 0 0 0 0 0 0 0 0 0 0 0 0 0 0 0 0 0 0 0 0 0 0 0 0 0 0 0
0 0 0 0 0 0 0 0 0 0 0 0 0 0 0 0 0 0 0 0 0 0 0 0 0 0 0 0 0 0 0 0 0 0 0 0 0 0 0 0 0 0 0 0
0 0 0 0 0 0 0 0 0 0 0 0 0 0 0 0 0 0 0 0 0 0 0 0 0 0 0 0 1 1 0 0 0 0 0 0 0 0 0 0 0 0 0 0
0 0 0 0 0 0 0 0 0 0 0 0 0 0 0 0 0 0 0 0 0 0 0 0 0 0 0 0 0 0 0 0 0 0 0 0 0 0 0 0 0 0 0 0
0 0 0 0 0 0 0 0 0 0 0 0 0 0 0 0 0 0 0 0 0 0 0 0 0 0 0 0 0 0 0 0 0 0 0 0 0 0 0 0 0 0 0 0
0 0 0 0 0 0 0 0 0 0 0 0 0 0 0 0 0 0 0 0 0 0 0 0 0 1 0 0 0 0 0 0 0 0 0 0 0 0 0 0 0 0 0 0
0 0 0 0 0 0 0 0 0 0 0 0 0 0 0 0 0 0 0 0 0 0 0 0 0 0 0 0 0 0 0 0 0 0 0 0 0 0 0 0 0 0 0 0
0 0 0 0 0 0 0 0 0 0 0 0 0 0 0 0 0 0 0 0 0 0 0 0 0 0 0 0 0 0 0 0 0 0 0 0 0 0 0 0 0 0 0 0
0 0 0 0 0 0 0 0 0 0 0 0 0 0 0 0 0 0 0 0 0 0 0 0 0 0 0 0 0 0 0 0 0 0 0 0 0 0 0 0 0 0 0 0
0 0 0 0 0 0 0 0 0 0 0 0 0 0 0 0 0 0 0 0 0 0 0 0 0 0 0 0 0 0 0 0 0 0 0 0 0 0 0 0 0 0 0 0
0 0 0 0 0 0 0 0 0 0 0 0 0 0 0 0 0 0 0 0 0 0 0 0 0 0 0 0 0 0 0 0 0 0 0 0 0 0 0 0 0 0 0 0
0 0 0 0 0 0 0 0 0 0 0 0 0 0 0 0 0 0 0 0 0 0 0 0 0 0 0 0 0 0 0 0 0 0 0 0 0 0 0 0 0 0 0 0
0 0 0 0 0 0 0 0 0 0 0 0 0 0 0 0 0 0 0 0 0 0 0 0 0 0 0 0 0 0 0 0 0 0 0 0 0 0 0 0 0 0 0 0
0 0 0 0 0 0 0 0 0 0 0 0 0 0 0 0 0 0 0 0 0 0 0 0 0 0 0 0 0 0 0 0 0 0 0 0 0 0 0 0 0 0 0 0
0 0 0 0 0 0 0 0 0 0 0 0 0 0 0 0 0 0 0 0 0 0 0 0 0 0 0 0 0 0 0 0 0 0 0 0 0 0 0 0 0 0 0 0
0 0 0 0 0 0 0 0 0 0 0 0 0 0 0 0 0 0 0 0 0 0 0 0 0 0 0 0 0 0 0 0 0 0 0 0 0 0 0 0 0 0 0 0
0 0 0 0 0 0 0 0 0 0 0 0 0 0 0 0 0 0 0 0 0 0 0 0 0 0 0 0 0 0 0 0 0 0 0 0 0 0 0 0 0 0 0 0
0 0 0 0 0 0 0 0 0 0 0 0 0 0 0 0 0 0 0 0 0 0 0 0 0 0 0 0 0 0 0 0 0 0 0 0 0 0 0 0 0 0 0 0
0 0 0 0 0 0 0 0 0 0 0 0 0 0 0 0 0 0 0 0 0 0 0 0 0 0 0 0 0 0 0 0 0 0 0 0 0 0 0 0 0 0 0 0
0 0 0 0 0 0 0 0 0 0 0 0 0 0 0 0 0 0 0 0 0 0 0 0 0 0 0 0 0 0 0 0 0 0 0 0 0 0 0 0 0 0 0 0
0 0 0 0 0 0 0 0 0 0 0 0 0 0 0 0 0 0 0 0 0 0 0 0 0 0 0 0 0 0 0 0 0 0 0 0 0 0 0 0 0 0 0 0
0 0 0 0 0 0 0 0 0 0 0 0 0 0 0 0 0 0 0 0 0 0 0 0 0 0 0 0 0 0 0 0 0 0 0 0 0 0 0 0 0 0 0 0
0 0 0 0 0 0 0 0 0 0 0 0 0 0 0 0 0 0 0 0 0 0 0 0 0 0 0 0 0 0 0 0 0 0 0 0 0 0 0 0 0 0 0 0
0 0 0 0 0 0 0 0 0 0 0 0 0 0 0 0 0 0 0 0 0 0 0 0 0 0 0 0 0 0 0 0 0 0 0 0 0 0 0 0 0 0 0 0
0 0 0 0 0 0 0 0 0 0 0 0 0 0 0 0 0 0 0 0 0 0 0 0 0 0 0 0 0 0 0 0 0 0 0 0 0 0 0 0 0 0 0 0
0 0 0 0 0 0 0 0 0 0 0 0 0 0 0 0 0 0 0 0 0 0 0 0 0 0 0 0 0 0 0 0 0 0 0 0 0 0 0 0 0 0 0 0
0 0 0 0 0 0 0 0 0 0 0 0 0 0 0 0 0 0 0 0 0 0 0 0 0 0 0 0 0 0 0 0 0 0 0 0 0 0 0 0 0 0 0 0
Wind_Speed
15 17 16 12 10 10 9 10 10 11 8 7 7 9 10 11 12 14 14 13 10 8 8 8 8 8 9 9 8 8 8 8 8 8 8 8 9 9 9 9 10 8 7 8
16 15 11 8 13 13 12 13 13 13 9 8 10 11 12 14 16 17 15 12 11 11 11 10 9 9 9 8 8 8 8 9 9 9 9 8 8 8 8 8 8 7 7 9
14 14 10 8 12 12 12 12 13 14 12 12 14 15 16 18 19 15 14 15 15 14 11 9 10 8 9 8 8 8 9 9 9 9 10 9 10 9 8 8 7 8 8 8
12 12 6 8 10 11 12 13 13 11 13 15 17 18 18 18 14 16 19 18 16 15 13 12 11 9 8 10 9 9 9 10 9 9 9 8 7 7 7 7 7 7 8 9
8 11 3 7 10 12 14 14 12 13 16 19 20 21 17 16 19 19 19 17 14 15 16 12 12 10 10 11 11 11 11 10 9 9 9 8 8 7 7 7 8 8 9 9
9 11 8 8 13 15 14 7 14 18 20 21 22 18 15 19 21 19 17 16 15 16 16 12 9 9 11 13 12 12 12 10 10 9 9 9 9 8 8 7 8 9 9 7
10 11 6 10 16 17 12 13 18 19 20 21 20 18 20 21 20 19 17 17 15 15 13 11 10 10 12 13 12 12 11 10 10 9 9 9 9 8 7 8 9 9 9 8
9 9 7 14 14 12 12 14 17 19 20 20 21 21 21 21 19 19 19 19 18 14 12 10 10 11 12 13 12 12 11 11 11 10 12 12 8 7 7 7 8 8 8 8
6 7 8 12 12 13 14 17 17 19 21 21 23 23 23 21 19 18 18 16 16 16 14 12 11 11 14 13 12 12 12 12 11 11 10 10 9 9 8 7 7 7 6 5
7 9 13 14 15 16 17 17 19 20 21 22 23 23 23 21 19 18 17 16 16 17 17 15 14 14 14 14 14 14 13 11 10 10 10 9 7 7 6 6 6 5 4 3
9 12 14 14 16 18 18 19 20 20 21 22 23 23 22 19 18 17 17 16 15 15 16 16 15 15 15 14 13 13 12 11 10 10 9 8 7 6 6 5 5 5 4 2
9 12 13 16 18 19 19 20 20 21 22 22 21 22 22 20 18 17 17 17 17 17 17 17 16 16 14 13 12 11 11 10 8 7 7 7 7 6 6 8 8 7 6 3
9 13 14 17 17 18 18 20 21 22 22 22 20 20 20 19 17 18 18 18 18 18 18 18 17 17 15 12 12 11 11 9 7 7 7 7 6 6 5 5 7 8 7 6
10 12 15 15 17 18 20 21 21 21 20 20 20 19 19 19 19 19 19 19 18 19 18 17 17 16 14 12 11 11 10 10 9 7 7 7 6 6 5 5 4 4 5 8
12 13 15 16 17 18 19 20 21 20 21 20 19 19 20 20 19 19 19 19 18 18 18 17 17 15 13 11 10 10 8 6 6 6 6 6 6 5 5 5 4 3 2 4
13 14 15 16 18 19 20 21 21 21 21 20 20 20 20 19 19 19 19 18 18 18 18 17 16 14 12 10 9 7 6 10 8 6 5 5 5 4 4 3 3 3 3 4
13 14 15 16 18 19 19 20 20 20 20 20 20 20 20 20 20 19 19 18 17 17 16 15 15 14 11 9 7 6 5 5 7 6 5 4 4 3 3 3 3 3 3 5
11 12 14 16 17 18 19 19 19 19 18 18 19 19 19 19 20 20 20 19 17 16 15 14 14 14 11 8 6 4 4 4 3 3 3 3 3 2 3 3 3 4 4 6
11 13 14 15 16 16 17 17 18 17 17 17 18 19 18 18 18 18 19 18 16 15 16 16 17 13 9 8 7 4 4 3 2 2 2 2 3 3 2 3 3 4 6 7
12 13 14 15 16 16 16 16 17 16 16 16 17 18 18 19 18 18 18 15 12 12 15 16 14 10 9 8 8 5 4 3 2 1 1 1 1 1 2 2 3 4 6 6
11 12 14 15 15 15 16 16 15 16 16 16 16 17 18 18 18 17 15 13 14 16 16 14 10 9 9 9 8 4 3 2 2 2 2 1 1 2 2 3 3 4 5 6
10 11 13 14 14 14 14 14 14 16 16 16 17 17 17 17 17 15 14 11 14 18 14 9 9 12 14 12 6 4 4 3 2 2 1 1 1 2 3 3 4 5 5 6
9 10 11 12 13 14 14 13 14 14 15 15 16 16 17 15 12 12 13 12 13 18 13 10 13 16 16 8 5 5 5 4 4 3 2 2 2 3 4 5 4 5 5 5
8 9 10 11 12 12 13 13 13 12 14 14 14 14 14 12 11 11 10 14 16 17 12 12 16 17 12 6 5 5 4 4 4 4 3 2 3 3 4 4 4 5 5 6
7 8 8 10 10 10 11 12 12 12 13 12 14 14 12 10 11 12 12 14 17 16 12 12 15 15 10 7 7 7 5 5 5 4 3 3 2 3 3 3 4 5 5 5
5 6 6 6 6 7 9 9 9 10 10 11 11 11 11 10 12 11 11 13 17 15 12 10 11 11 9 9 8 8 7 6 5 4 4 3 3 3 2 3 5 5 4 5
4 4 4 5 6 7 8 8 9 9 9 10 11 11 11 11 12 13 14 12 12 12 12 11 10 10 10 10 9 8 7 7 6 5 4 4 4 4 4 5 5 5 5 6
Wind_Direction
309 305 310 320 345 0 5 359 346 351 9 28 13 349 339 332 323 315 310 307 307 303 294 289 290 287 287 288 290 291 288 284 280 276 274 275 278 280 279 277 282 284 290 289
306 308 317 18 23 17 15 5 349 338 347 14 353 339 331 327 321 314 316 324 324 316 308 302 298 297 295 291 287 282 281 283 284 282 280 278 279 280 281 281 284 292 294 294
308 312 312 47 25 14 4 355 344 335 346 354 339 332 329 324 315 325 336 329 319 314 310 305 303 295 290 291 287 285 283 281 279 279 279 278 284 290 290 293 294 293 291 290
305 321 7 64 31 12 350 340 349 359 355 341 329 327 322 316 334 340 329 322 319 315 312 306 304 300 296 297 292 288 283 282 283 282 283 284 284 285 289 291 289 287 285 281
320 337 61 78 29 3 339 329 27 359 340 332 331 320 314 336 340 325 318 316 314 311 309 305 301 297 295 293 290 287 286 283 283 283 285 286 286 286 288 286 285 281 280 274
332 331 359 41 9 350 322 314 16 347 336 332 327 319 322 329 320 316 317 314 311 309 306 301 297 297 294 293 291 289 290 287 284 282 282 283 282 280 282 282 280 278 274 272
342 328 59 19 358 349 338 339 340 332 330 326 323 315 314 318 319 318 315 314 312 310 308 306 305 301 296 293 291 289 287 284 281 277 276 273 269 266 270 274 277 275 275 274
343 337 16 9 357 356 334 330 329 328 326 322 317 315 316 316 316 316 315 315 315 310 304 301 302 301 296 292 291 290 288 286 284 280 280 281 274 271 270 271 275 274 267 267
345 331 355 359 346 349 343 332 329 326 324 321 318 317 317 317 317 317 317 317 317 314 311 309 307 303 298 296 294 291 288 286 285 284 279 276 272 272 270 266 265 269 269 266
332 334 353 345 347 345 337 331 327 324 322 321 319 319 318 319 320 321 321 320 319 317 313 310 309 305 298 297 296 292 288 286 284 283 280 277 271 269 267 267 266 265 262 276
326 349 338 337 341 335 332 330 325 324 323 322 321 320 323 323 323 323 322 322 320 315 310 306 304 299 298 295 295 295 293 288 286 282 278 274 270 262 264 260 258 264 266 262
334 343 331 328 332 333 331 328 327 326 325 326 326 326 327 325 325 325 324 321 317 315 312 308 306 302 298 294 292 289 287 284 281 278 276 274 272 273 256 246 247 246 235 239
341 337 327 324 328 333 329 329 329 328 328 330 331 331 330 329 328 325 321 319 318 316 312 308 306 302 298 292 288 283 280 279 276 274 272 268 266 261 262 253 239 229 221 212
345 335 327 329 333 332 331 330 330 330 333 333 334 335 333 329 325 324 323 320 317 313 310 308 304 302 301 297 288 283 280 276 272 267 266 266 265 260 255 246 244 229 209 194
341 336 329 331 332 332 333 333 333 334 336 337 338 336 333 328 326 324 322 320 318 315 313 310 307 305 304 298 288 282 277 270 267 265 261 261 261 259 254 246 237 224 184 158
334 332 333 334 334 335 336 337 337 337 339 338 338 336 332 329 326 324 323 324 322 319 317 316 313 310 306 299 290 281 272 267 266 266 261 252 250 248 238 228 219 208 189 163
334 335 337 337 336 337 338 340 339 339 339 338 337 335 333 332 328 326 326 326 322 318 319 321 320 318 312 304 294 282 277 273 260 259 261 260 259 249 230 217 205 194 177 166
337 337 339 337 337 337 339 341 341 341 339 338 338 336 335 333 331 329 328 327 327 327 331 332 331 326 320 318 313 297 285 275 266 256 256 254 251 230 213 205 197 182 156 156
342 343 341 340 341 341 341 341 341 339 340 342 340 337 335 334 332 331 330 331 334 336 337 337 332 332 334 337 332 310 299 288 274 261 257 245 236 212 198 190 186 177 163 161
344 343 342 342 344 343 341 342 339 340 344 344 341 339 339 338 336 335 334 335 338 337 334 333 335 342 348 351 341 325 326 322 320 320 295 262 176 154 152 155 163 163 155 162
342 343 343 343 342 343 343 341 341 344 347 346 345 344 340 337 338 338 336 338 339 341 337 333 342 352 351 341 327 335 344 352 358 353 355 32 77 117 140 163 168 162 158 160
344 343 342 341 341 341 340 343 347 348 349 347 348 347 343 340 340 339 340 340 336 337 337 343 354 350 342 332 338 353 1 8 15 22 30 47 84 134 146 146 144 144 144 147
340 339 338 338 339 335 339 347 350 351 351 351 352 350 345 341 340 340 340 340 339 335 336 349 344 339 335 334 350 4 10 16 24 35 43 41 67 96 110 122 127 134 141 149
334 335 332 336 334 337 345 349 351 354 354 355 354 352 347 342 342 344 336 335 341 337 342 349 342 340 337 345 4 13 14 14 21 24 29 51 79 99 110 120 129 138 147 154
327 325 330 338 339 344 344 348 351 356 358 355 352 354 351 346 343 340 340 344 348 346 349 353 351 349 356 5 9 13 19 20 14 9 28 46 65 89 108 123 135 143 151 150
314 317 337 336 343 345 349 352 353 358 357 354 351 353 350 349 348 347 347 350 353 351 355 357 358 359 5 8 11 12 14 19 24 26 30 39 62 86 107 130 137 140 143 141
305 327 343 350 358 359 354 354 357 358 1 356 349 351 353 353 354 354 355 356 358 359 360 1 2 5 7 11 13 17 18 18 21 21 21 33 48 59 70 87 93 94 99 99